Home   Weather   Szczecin   Past weeks

Flag for Poland Past Weather in Szczecin, Poland — Yesterday and Last 2 Weeks

Now
39 °F

Clear.


Feels Like: 32 °F
Forecast: 44 / 53 °F
Wind: 10 mph from East

Location: Szczecin Airport

Current Time: May 1, 2017 at 4:30:28 am

Latest Report: May 1, 2017 at 3:30 am


Visibility: 10 mi

Pressure: 30.12 "Hg

Humidity: 65%

Dew Point: 28 °F

Location of SzczecinLocation

Past Weather in Szczecin — Graph

°F

Szczecin Temperature Yesterday

Maximum temperature yesterday: 54 °F (at 3:00 pm)
Minimum temperature yesterday: 30 °F (at 3:30 am)
Average temperature yesterday: 44 °F

High & Low Weather Summary for the Past Weeks

 TemperatureHumidityPressure
High55 °F (Apr 21, 5:30 pm)100% (Apr 25, 4:00 am)30.57 "Hg (Apr 25, 4:00 am)
Low23 °F (Apr 20, 5:30 am)35% (Apr 28, 1:30 pm)29.56 "Hg (Apr 25, 5:30 am)
Average41 °F74%30.03 "Hg
* Reported Apr 16 3:00 am — May 1 3:00 am, Szczecin, Weather by CustomWeather, © 2017

Note: Actual official high and low records may vary slightly from our data, if they occured in-between our weather recording intervals... More about our weather records

Advertising

Szczecin Weather History for the Previous 24 Hours

Scroll right to see more
 ConditionsComfort  
Time TempWeatherWind HumidityBarometerVisibility
3:00 am
Mon, May 1
39 °FClear.10 mph65%30.12 "Hg10 mi
2:30 am41 °FClear.10 mph61%30.15 "Hg10 mi
2:00 am41 °FClear.9 mph61%30.15 "Hg10 mi
1:30 am41 °FPassing clouds.10 mph66%30.15 "HgN/A
1:00 am43 °FClear.10 mph61%30.15 "Hg10 mi
12:30 am43 °FClear.9 mph61%30.15 "Hg10 mi
12:00 am45 °FClear.10 mph57%30.15 "Hg10 mi
11:30 pm
Sun, Apr 30
45 °FClear.12 mph57%30.12 "Hg10 mi
11:00 pm45 °FClear.10 mph57%30.15 "Hg10 mi
10:30 pm46 °FClear.10 mph53%30.12 "Hg10 mi
10:00 pm46 °FClear.10 mph53%30.15 "Hg10 mi
9:30 pm46 °FClear.12 mph53%30.15 "Hg10 mi
9:00 pm48 °FClear.12 mph50%30.15 "Hg10 mi
8:30 pm48 °FClear.13 mph50%30.15 "Hg10 mi
8:00 pm50 °FSunny.12 mph47%30.12 "Hg10 mi
7:30 pm52 °FSunny.17 mph44%30.12 "Hg10 mi
7:00 pm52 °FSunny.17 mph41%30.12 "Hg10 mi
6:30 pm54 °FSunny.16 mph38%30.12 "Hg10 mi
6:00 pm54 °FPassing clouds.13 mph38%30.15 "HgN/A
5:30 pm54 °FPassing clouds.15 mph38%30.15 "HgN/A
5:00 pm54 °FPassing clouds.15 mph41%30.15 "HgN/A
4:30 pm54 °FPassing clouds.14 mph41%30.15 "HgN/A
4:00 pm52 °FSunny.14 mph41%30.18 "Hg10 mi
3:30 pm54 °FPassing clouds.13 mph41%30.18 "HgN/A
3:00 pm54 °FPassing clouds.14 mph41%30.18 "HgN/A
2:00 pm52 °FScattered clouds.14 mph47%30.21 "HgN/A
1:30 pm52 °FScattered clouds.12 mph44%30.21 "HgN/A
1:00 pm52 °FPassing clouds.13 mph47%30.21 "HgN/A
12:30 pm50 °FPassing clouds.14 mph43%30.21 "HgN/A
12:00 pm50 °FPassing clouds.15 mph47%30.21 "HgN/A
11:30 am48 °FPassing clouds.10 mph50%30.24 "HgN/A
11:00 am46 °FPassing clouds.10 mph53%30.21 "HgN/A
10:30 am46 °FPassing clouds.10 mph57%30.24 "HgN/A
10:00 am46 °FPassing clouds.10 mph62%30.24 "HgN/A
9:30 am45 °FPassing clouds.9 mph66%30.24 "HgN/A
9:00 am43 °FSunny.10 mph66%30.24 "Hg10 mi
8:30 am41 °FSunny.12 mph76%30.24 "Hg10 mi
8:00 am41 °FSunny.8 mph76%30.21 "Hg10 mi
7:30 am37 °FSunny.7 mph87%30.21 "Hg10 mi
7:00 am36 °FSunny.6 mph93%30.21 "Hg10 mi
6:30 am34 °FSunny.5 mph93%30.21 "Hg10 mi
6:00 am30 °FSunny.1 mph100%30.21 "Hg10 mi
5:30 am30 °FFog.1 mph93%30.21 "Hg4 mi
5:00 am34 °FFog.2 mph93%30.18 "HgN/A
4:30 am30 °FFog.2 mph93%30.18 "HgN/A
4:00 am30 °FFog.1 mph100%30.18 "HgN/A
Weather by CustomWeather, © 2017

See weather overviewHow to use our weather pages